Tracking 25963 objects as of 13-Aug-2022
HD Live streaming from Space Station
objects crossing your sky now

STARLINK-4023

Track STARLINK-4023 now!
10-day predictions
STARLINK-4023 is classified as:


NORAD ID: 53135
Int'l Code: 2022-083D
Perigee: 378.1 km
Apogee: 380.0 km
Inclination: 53.2 °
Period: 92.0 minutes
Semi major axis: 6750 km
RCS: Unknown
Launch date: July 17, 2022
Source: United States (US)
Launch site: AIR FORCE EASTERN TEST RANGE (AFETR)
aabbcc
Your satellite tracking list
Your tracking list is empty




NASA's NSSDC Master Catalog

Two Line Element Set (TLE):
1 53135U 22083D   22224.58334491 -.01116250  00000-0 -12076-1 0  9996
2 53135  53.2174 278.2682 0001385  47.0559  53.5881 15.65453335  4748
Source of the keplerian elements: AFSPC